Temp
15 16 16 16 17 17 18 18 19 19 20 20 20 20 21 22 23 22 24 25 25 26 26 25 24 26 28 28 29 31 29 32 33 31 28 32 33 31 28 30 29 28 25 23 23
15 15 16 16 17 17 18 18 18 19 19 20 20 20 20 21 22 24 26 26 26 26 26 26 27 28 29 30 31 32 26 33 36 35 32 34 33 32 31 30 29 28 26 24 24
15 16 16 16 17 17 18 18 18 19 19 20 20 20 20 21 21 25 26 27 26 26 25 26 28 29 30 31 32 34 32 35 36 35 33 34 32 32 31 30 29 27 25 25 24
15 15 16 16 17 17 18 18 18 19 19 20 20 20 20 20 25 26 26 26 26 25 24 26 28 30 31 32 33 33 35 36 35 34 35 34 33 33 31 30 29 27 25 25 24
15 15 16 16 17 17 18 18 18 19 19 19 19 19 20 19 23 25 25 26 25 25 25 27 29 30 31 33 34 35 35 35 35 34 35 33 33 32 31 30 29 27 25 25 25
15 15 15 16 17 17 18 18 18 19 19 19 19 19 19 21 26 25 25 25 24 24 25 27 29 30 31 33 34 35 35 35 35 35 34 34 33 32 31 30 28 27 26 25 25
14 15 15 15 16 17 17 18 19 19 19 19 19 18 17 22 26 26 25 24 25 25 27 28 29 30 31 32 33 34 34 35 36 35 34 34 32 32 31 30 28 27 26 26 26
14 14 15 15 16 16 17 18 19 19 18 18 18 18 19 25 24 24 25 25 26 26 27 29 29 30 31 32 33 34 34 33 36 35 34 34 31 32 31 30 29 28 27 27 26
13 14 15 15 16 16 17 18 19 19 18 18 18 17 22 24 24 25 25 26 26 27 27 27 28 29 30 31 31 33 32 33 31 35 34 34 30 32 31 30 29 28 28 27 27
12 13 14 14 15 15 16 18 19 19 18 17 15 19 21 25 26 25 25 26 27 27 27 28 28 29 30 31 30 32 33 34 31 34 34 30 23 30 32 31 30 29 28 27 27
12 13 13 14 15 15 16 18 19 19 19 21 22 23 24 25 25 25 25 26 27 28 28 28 28 28 30 31 33 34 34 34 34 34 35 28 19 24 32 32 31 30 28 28 27
11 12 13 14 14 15 16 16 16 15 16 18 20 21 22 23 24 25 25 26 27 28 29 29 28 31 32 32 32 33 33 35 34 27 31 30 27 27 33 33 32 31 29 29 28
11 12 13 14 14 15 16 16 16 16 17 20 23 23 24 23 23 25 26 26 28 28 29 28 30 31 32 32 32 33 33 34 32 29 31 35 34 33 34 34 33 32 30 29 29
10 11 12 14 14 15 16 16 16 16 17 24 25 25 24 25 25 25 25 27 28 28 29 29 31 31 31 32 33 32 34 35 33 28 25 36 30 31 33 33 34 33 31 30 29
10 11 12 10 12 15 15 15 16 16 19 27 26 24 25 25 27 27 25 26 27 28 29 29 30 31 31 32 33 33 35 35 35 33 32 30 31 32 34 33 33 34 33 32 30
10 10 11 11 11 13 14 15 16 18 19 26 27 26 26 26 26 27 26 26 27 28 29 30 31 32 32 33 34 34 34 35 35 35 31 31 31 33 34 35 35 35 34 33 31
10 11 10 10 12 13 14 16 18 18 26 25 26 26 26 26 27 28 27 27 26 26 27 29 30 32 33 32 33 34 33 32 31 32 32 34 32 33 34 34 34 33 35 34 32
10 11 12 11 12 13 14 17 16 21 23 25 26 26 25 25 26 27 27 26 28 28 28 28 28 31 33 32 32 33 33 32 29 31 33 35 32 32 33 31 29 29 34 34 33
10 10 13 13 13 13 15 16 18 21 23 22 22 22 23 24 25 25 26 27 28 28 27 28 29 32 33 33 33 32 32 34 33 34 33 35 34 33 31 30 31 33 35 35 34
9 10 12 13 13 13 15 15 18 21 20 20 19 21 20 23 24 25 25 27 28 29 29 29 28 32 33 33 33 33 34 32 33 30 30 34 34 34 32 33 31 33 37 35 34
9 13 14 13 13 14 15 18 19 17 17 16 17 17 18 19 21 23 25 27 28 29 30 29 29 30 32 32 31 31 32 33 34 33 32 31 34 37 35 35 33 35 37 36 36
9 14 14 13 14 16 17 17 16 16 16 16 16 16 17 17 18 20 22 25 26 26 25 29 29 28 30 33 33 33 32 33 32 31 34 33 33 36 37 38 37 37 37 37 36
9 12 14 13 15 16 17 16 15 15 15 15 15 16 17 16 16 19 20 23 24 24 24 24 26 27 28 32 33 32 32 33 34 34 32 32 33 35 34 37 37 36 36 35 35
8 14 14 14 15 15 14 14 14 15 13 13 13 13 14 14 17 17 19 22 22 24 22 23 23 24 28 30 33 31 32 33 33 32 33 33 33 34 35 35 37 35 35 34 34
8 12 11 12 13 13 13 14 13 13 12 11 12 12 13 12 15 17 19 20 22 23 23 23 21 24 28 30 33 32 32 32 33 33 32 34 34 32 34 33 31 34 34 33 34
7 8 8 10 11 13 13 12 10 13 12 11 10 10 10 9 11 13 15 20 21 23 23 24 22 24 26 29 31 32 32 32 33 34 34 35 33 33 35 35 32 34 34 33 33
6 5 6 8 11 12 13 13 13 13 12 11 10 9 9 11 10 10 12 16 20 21 21 21 22 23 24 28 30 30 32 32 33 34 34 33 34 34 34 34 35 35 35 34 33
Height
1528 1525 1522 1519 1516 1513 1510 1506 1503 1500 1497 1495 1493 1491 1489 1486 1485 1483 1480 1484 1484 1485 1486 1487 1487 1488 1486 1479 1479 1476 1480 1466 1457 1458 1469 1462 1467 1473 1484 1485 1492 1497 1506 1517 1524
1528 1525 1522 1518 1515 1512 1508 1505 1501 1498 1495 1492 1490 1489 1486 1483 1481 1475 1475 1478 1480 1481 1482 1485 1485 1485 1483 1477 1473 1469 1482 1457 1444 1449 1462 1459 1465 1474 1480 1488 1493 1499 1508 1518 1523
1528 1525 1521 1517 1513 1510 1507 1503 1499 1496 1493 1490 1488 1486 1484 1482 1477 1471 1468 1470 1475 1477 1480 1483 1483 1482 1480 1475 1466 1461 1471 1454 1448 1453 1458 1459 1467 1474 1478 1486 1495 1502 1510 1518 1523
1527 1524 1520 1516 1512 1508 1505 1501 1498 1494 1491 1488 1485 1483 1482 1482 1477 1468 1469 1470 1472 1474 1478 1480 1480 1478 1476 1472 1464 1463 1455 1452 1452 1456 1455 1458 1466 1470 1477 1482 1492 1502 1512 1517 1523
1527 1524 1519 1515 1511 1506 1503 1499 1495 1492 1488 1485 1483 1481 1481 1480 1470 1468 1468 1469 1469 1470 1473 1477 1476 1475 1471 1467 1459 1456 1455 1451 1453 1457 1455 1460 1465 1472 1479 1485 1492 1503 1512 1517 1522
1527 1523 1518 1514 1509 1505 1500 1496 1493 1489 1485 1482 1481 1479 1479 1477 1466 1464 1467 1467 1468 1469 1473 1474 1473 1472 1470 1465 1458 1452 1452 1451 1450 1455 1456 1459 1468 1474 1482 1486 1494 1502 1509 1515 1520
1525 1521 1517 1512 1507 1503 1498 1494 1490 1486 1483 1480 1478 1477 1476 1465 1465 1466 1466 1467 1469 1470 1471 1472 1472 1472 1470 1464 1460 1455 1454 1450 1448 1453 1458 1460 1471 1472 1482 1487 1495 1502 1508 1513 1519
1525 1521 1516 1510 1505 1500 1495 1491 1487 1484 1480 1477 1475 1475 1469 1462 1461 1462 1465 1466 1467 1469 1469 1470 1471 1470 1468 1464 1460 1455 1453 1458 1443 1450 1457 1460 1477 1475 1482 1487 1495 1501 1506 1510 1516
1524 1519 1514 1509 1503 1498 1492 1488 1484 1480 1478 1475 1474 1474 1464 1457 1457 1458 1461 1463 1465 1466 1468 1469 1469 1468 1468 1466 1465 1454 1463 1455 1462 1447 1453 1461 1477 1475 1483 1488 1493 1499 1504 1508 1514
1522 1517 1512 1506 1500 1495 1490 1484 1480 1476 1475 1473 1472 1477 1460 1455 1453 1455 1457 1460 1461 1464 1466 1467 1467 1464 1463 1463 1475 1461 1455 1442 1459 1452 1450 1470 1491 1477 1478 1484 1491 1495 1501 1506 1510
1521 1516 1510 1504 1498 1494 1489 1482 1483 1477 1477 1471 1466 1459 1453 1455 1454 1454 1455 1458 1458 1459 1459 1460 1463 1461 1455 1453 1448 1442 1438 1441 1441 1443 1447 1471 1493 1483 1471 1475 1485 1490 1497 1502 1507
1520 1514 1508 1503 1498 1495 1492 1493 1493 1492 1474 1462 1455 1452 1448 1454 1451 1448 1451 1453 1454 1451 1454 1455 1458 1448 1447 1447 1447 1442 1440 1435 1435 1452 1454 1457 1472 1466 1461 1463 1471 1482 1489 1495 1501
1518 1512 1507 1501 1497 1495 1495 1494 1492 1490 1480 1445 1441 1440 1440 1445 1443 1443 1446 1446 1444 1446 1445 1449 1444 1443 1443 1445 1446 1441 1440 1431 1445 1452 1450 1438 1449 1452 1454 1458 1461 1469 1479 1487 1492
1517 1511 1506 1499 1499 1495 1495 1493 1492 1490 1478 1437 1434 1434 1436 1437 1437 1439 1439 1443 1442 1440 1439 1442 1435 1437 1440 1439 1436 1443 1427 1425 1437 1458 1496 1428 1479 1458 1446 1450 1453 1457 1467 1477 1484
1515 1510 1505 1503 1498 1497 1496 1493 1491 1489 1478 1423 1426 1433 1432 1434 1423 1424 1433 1436 1437 1436 1437 1435 1433 1432 1436 1433 1429 1433 1421 1423 1422 1437 1448 1453 1465 1445 1433 1444 1447 1452 1458 1466 1475
1513 1508 1502 1501 1499 1496 1495 1492 1491 1487 1470 1423 1422 1424 1427 1425 1425 1424 1427 1432 1434 1433 1431 1428 1426 1425 1423 1425 1425 1425 1425 1424 1423 1430 1462 1455 1463 1443 1431 1433 1436 1443 1450 1457 1467
1509 1505 1500 1497 1497 1496 1494 1492 1485 1479 1428 1428 1422 1421 1424 1424 1421 1419 1422 1427 1430 1441 1436 1425 1423 1418 1419 1424 1422 1424 1432 1451 1456 1452 1456 1426 1448 1438 1424 1427 1433 1443 1441 1450 1459
1506 1502 1499 1498 1496 1496 1494 1489 1487 1453 1439 1427 1426 1425 1431 1429 1427 1420 1420 1425 1421 1421 1429 1433 1437 1416 1412 1415 1421 1422 1426 1441 1469 1459 1445 1417 1443 1435 1424 1440 1438 1454 1441 1444 1452
1502 1497 1495 1496 1497 1495 1494 1483 1468 1454 1445 1444 1440 1440 1438 1430 1428 1425 1419 1418 1414 1418 1427 1424 1422 1405 1406 1409 1412 1421 1430 1418 1430 1422 1435 1423 1418 1418 1441 1441 1431 1430 1426 1436 1445
1501 1496 1492 1494 1495 1493 1490 1481 1465 1458 1458 1459 1459 1450 1451 1435 1427 1422 1422 1413 1413 1409 1415 1412 1423 1398 1400 1404 1406 1410 1413 1435 1423 1459 1459 1427 1422 1427 1431 1424 1426 1423 1421 1429 1437
1502 1496 1491 1493 1492 1490 1481 1465 1461 1468 1472 1473 1469 1465 1461 1456 1443 1431 1420 1415 1407 1408 1406 1410 1415 1403 1394 1400 1408 1414 1415 1415 1416 1422 1444 1447 1423 1391 1403 1404 1415 1417 1419 1425 1431
1505 1495 1489 1490 1488 1475 1467 1468 1473 1472 1475 1476 1475 1473 1470 1466 1458 1445 1431 1416 1413 1418 1417 1402 1405 1413 1401 1384 1393 1399 1410 1410 1423 1432 1417 1419 1423 1387 1386 1396 1404 1407 1412 1418 1425
1505 1493 1487 1488 1480 1469 1469 1474 1477 1477 1477 1477 1477 1474 1471 1467 1466 1452 1439 1424 1425 1428 1424 1424 1412 1414 1406 1386 1384 1398 1399 1400 1402 1406 1419 1430 1426 1399 1413 1395 1402 1407 1411 1418 1425
1507 1491 1485 1485 1481 1480 1480 1481 1478 1477 1481 1484 1483 1483 1478 1469 1461 1455 1447 1433 1432 1430 1428 1431 1423 1417 1404 1390 1380 1397 1395 1394 1399 1413 1411 1410 1412 1410 1401 1397 1400 1404 1414 1424 1425
1509 1498 1498 1488 1484 1484 1485 1481 1476 1478 1482 1485 1482 1478 1476 1475 1460 1451 1444 1438 1433 1427 1426 1429 1432 1416 1395 1382 1373 1383 1394 1393 1398 1397 1410 1404 1406 1417 1406 1417 1408 1408 1416 1421 1421
1512 1508 1503 1497 1491 1484 1477 1479 1485 1479 1477 1482 1484 1482 1483 1483 1478 1461 1453 1436 1432 1424 1423 1419 1423 1413 1403 1384 1375 1375 1381 1388 1388 1392 1394 1395 1407 1399 1404 1405 1415 1415 1420 1421 1423
1511 1511 1509 1498 1489 1482 1479 1474 1474 1476 1475 1480 1484 1483 1479 1475 1476 1473 1462 1448 1432 1428 1428 1428 1424 1416 1411 1389 1378 1381 1370 1380 1384 1382 1388 1400 1394 1399 1403 1406 1414 1414 1419 1420 1423
Wind_Speed
18 18 19 19 19 20 20 21 21 21 21 21 20 20 20 22 21 21 23 14 12 13 12 8 11 13 15 22 18 20 8 10 4 16 11 16 16 23 15 17 16 7 29 34 31
19 20 20 21 21 21 22 22 21 21 21 20 19 18 19 21 22 27 25 19 20 20 17 12 14 14 18 21 17 8 7 16 7 13 9 6 16 10 11 13 12 23 31 33 32
19 20 21 22 23 23 22 22 22 21 21 20 19 18 16 16 18 9 14 13 19 21 18 14 16 16 19 20 23 15 6 17 8 5 22 15 16 11 18 13 14 35 36 33 31
23 24 24 24 25 25 24 23 22 22 21 20 19 16 14 9 7 3 4 6 13 19 17 19 20 21 17 16 20 12 15 1 6 3 9 8 16 12 7 22 23 28 32 33 30
23 24 24 25 26 26 26 24 23 22 21 18 17 15 12 9 21 20 20 16 11 19 22 22 22 22 17 19 20 11 11 2 7 5 9 15 11 11 17 24 25 29 31 31 29
25 25 26 26 26 27 26 24 23 23 21 18 14 13 11 15 9 16 7 10 9 16 21 22 19 20 19 21 19 13 17 9 6 9 6 11 14 13 11 24 26 30 31 30 28
27 28 28 28 27 26 25 25 24 23 21 17 13 11 12 27 5 7 8 11 12 14 18 19 20 17 20 19 15 19 12 15 9 14 7 12 11 13 18 22 25 27 29 28 28
28 28 28 28 27 26 25 24 23 21 20 14 9 7 11 9 13 21 13 16 16 15 16 14 16 21 19 20 22 16 18 15 15 16 13 11 13 15 19 23 24 26 28 27 27
28 29 29 29 28 26 25 23 21 18 15 12 4 5 13 8 15 14 18 19 19 19 16 14 14 20 20 15 14 15 15 17 9 16 17 11 3 18 19 20 22 26 27 27 27
30 31 30 30 27 24 24 20 16 16 8 10 9 10 15 10 3 10 18 18 19 21 22 19 17 15 16 15 16 18 19 19 20 16 20 15 10 4 22 21 21 24 26 27 28
29 30 30 29 25 19 22 24 13 1 8 18 20 21 30 15 12 12 13 21 20 22 20 26 15 19 23 22 21 23 19 16 19 11 16 22 20 28 23 24 22 24 25 27 28
29 30 30 27 18 13 12 14 11 10 18 24 32 33 36 25 26 16 15 24 25 21 23 20 21 22 21 22 23 25 25 17 14 9 22 29 31 32 20 24 29 26 27 29 28
28 30 30 26 10 12 9 10 13 13 9 27 19 23 24 22 31 23 21 27 20 23 25 23 25 23 22 23 24 25 25 21 19 18 28 21 19 23 23 21 30 29 29 29 31
27 29 28 26 5 10 6 13 14 12 6 10 9 4 8 16 17 30 25 24 24 23 24 23 27 25 24 24 24 24 26 25 20 17 19 13 8 17 24 21 18 28 32 30 33
26 27 26 14 15 7 12 15 14 8 6 9 8 1 4 13 12 27 32 27 24 24 19 23 21 27 25 27 24 24 23 22 14 17 6 7 15 15 13 23 21 18 29 31 33
26 24 24 8 13 11 17 15 8 6 10 5 8 6 6 15 15 5 28 30 27 24 26 25 27 24 27 23 26 24 21 23 19 14 14 15 12 17 23 16 21 24 27 30 32
26 22 16 12 7 13 14 10 6 7 8 4 5 6 8 11 11 12 21 23 21 23 24 22 28 26 24 26 24 25 21 13 16 15 12 20 18 9 2 4 8 11 28 29 33
27 16 12 8 6 11 10 9 10 13 15 18 11 11 10 11 14 19 18 19 25 23 18 21 19 29 27 27 22 25 23 15 19 17 16 17 10 6 11 8 18 41 32 29 31
26 17 10 5 7 10 12 8 12 14 14 12 17 12 13 17 17 17 16 18 21 25 24 20 25 20 29 23 26 25 23 24 24 19 16 17 18 11 19 21 12 19 25 29 30
27 18 11 6 9 10 9 14 20 18 12 14 12 10 15 17 17 17 17 14 21 25 27 26 20 24 27 27 28 24 19 22 18 17 20 19 15 9 20 16 6 11 19 29 30
17 10 4 6 14 13 9 15 5 17 14 10 15 18 18 21 23 22 12 17 17 17 23 28 24 25 24 30 25 19 22 23 21 17 14 15 13 17 23 22 26 27 22 21 22
11 6 6 10 12 12 10 5 13 15 16 15 16 18 19 20 22 23 23 19 15 18 17 23 19 21 28 26 30 26 25 25 17 24 16 15 6 7 8 16 15 20 25 27 23
11 19 5 6 7 9 12 11 12 12 12 13 16 18 18 20 20 21 25 29 25 18 10 13 9 20 25 22 25 29 26 27 23 21 19 12 14 8 18 19 24 16 14 7 3
11 5 3 9 6 8 11 13 14 7 8 14 13 18 21 22 21 22 24 20 24 22 9 11 15 17 18 19 23 27 29 28 26 19 19 18 7 4 10 2 18 26 19 9 10
6 5 9 8 9 13 10 15 13 12 9 11 15 16 17 16 20 22 25 23 25 32 7 15 18 20 26 28 23 25 28 28 29 23 24 20 17 20 12 9 8 26 20 9 7
7 6 11 18 17 16 14 1 2 16 5 8 13 13 12 15 18 24 24 20 21 18 14 14 15 17 24 27 30 28 28 29 30 29 25 25 13 14 12 20 28 19 16 15 8
5 6 7 12 15 11 10 7 11 12 6 7 12 11 14 18 22 27 32 31 18 8 14 7 14 14 19 22 25 20 29 28 26 24 26 22 14 19 19 1 10 20 15 21 21
Wind_Direction
4 360 355 350 346 342 338 334 329 324 319 316 314 314 311 303 295 287 270 257 246 258 262 249 229 236 246 262 266 271 329 328 101 140 144 183 126 102 127 119 149 149 144 151 155
2 358 353 348 344 340 337 333 329 326 322 317 311 311 310 308 300 281 274 248 234 245 252 227 233 230 243 259 251 227 242 295 31 83 81 141 120 110 133 133 130 117 136 151 154
360 355 352 348 345 341 340 337 332 323 318 318 314 308 309 314 309 315 251 240 237 236 236 234 235 234 243 255 264 259 287 291 53 71 159 140 111 146 131 159 144 135 146 155 156
357 354 351 348 345 340 339 337 335 328 320 314 315 307 304 303 289 5 330 253 230 232 229 225 230 240 239 250 252 268 267 190 19 107 98 132 124 151 152 133 144 144 154 159 161
351 349 346 343 342 340 337 334 332 329 323 315 312 309 298 257 252 276 275 279 240 220 212 215 221 232 245 248 248 243 274 295 170 206 134 113 140 125 107 134 140 149 159 164 167
346 344 342 339 337 337 335 332 331 329 325 315 307 303 286 262 270 227 233 249 223 200 206 215 224 231 252 253 273 254 229 280 151 169 123 136 104 149 140 138 144 156 164 169 172
345 344 341 337 334 332 331 329 328 326 323 317 303 293 261 245 246 233 223 216 206 204 209 221 226 231 238 264 265 277 275 242 199 148 162 165 143 151 151 152 150 164 170 172 176
345 345 342 337 331 329 326 324 324 322 323 322 299 275 258 254 256 244 231 222 215 216 220 224 226 240 252 248 255 266 241 256 176 161 163 181 151 136 149 159 159 168 173 175 180
344 344 344 339 334 331 327 322 320 313 309 326 284 247 263 275 242 235 222 220 218 218 225 232 240 232 239 248 250 248 236 223 304 172 153 186 190 129 159 162 169 170 177 179 183
345 345 344 340 336 336 335 331 323 310 306 311 267 261 261 249 263 226 218 218 218 219 226 223 229 234 227 222 226 231 223 232 159 238 163 100 7 270 168 164 173 175 180 185 187
343 342 342 343 340 348 358 6 349 300 297 276 275 261 281 278 277 250 230 213 222 212 217 212 218 221 217 223 230 243 228 214 169 200 177 140 141 246 194 162 169 180 184 189 191
342 340 341 345 344 7 11 9 359 314 300 280 261 260 260 261 264 241 217 205 211 215 210 210 223 225 223 223 235 245 257 226 186 18 278 161 179 206 184 177 166 179 185 192 193
341 339 341 344 347 1 341 350 342 330 272 295 260 247 249 227 235 233 214 209 215 213 206 216 213 222 224 226 223 237 248 255 149 148 271 231 181 166 176 187 169 176 183 194 193
339 338 342 339 350 329 323 329 332 326 283 260 192 142 221 218 227 226 228 211 229 219 216 218 232 209 224 225 226 228 235 251 160 145 236 219 181 254 175 182 187 177 175 191 192
337 336 335 333 333 343 325 328 321 308 282 147 107 325 189 209 298 203 214 217 217 217 225 224 217 234 213 225 222 236 235 244 243 191 146 311 284 184 233 178 178 196 184 187 192
334 335 326 331 294 290 316 318 308 239 245 222 161 170 253 209 222 256 193 218 218 229 221 235 227 225 233 215 233 230 242 242 247 240 197 184 237 256 193 187 181 190 197 186 186
332 333 323 306 270 323 317 307 238 241 294 287 326 89 334 325 297 210 185 212 210 212 232 223 236 226 226 230 214 228 227 232 223 232 233 208 185 232 0 181 190 265 191 184 184
333 334 326 301 301 311 316 259 247 282 291 320 315 292 279 294 282 276 221 209 215 225 217 226 219 230 216 228 216 218 222 232 224 222 234 236 198 198 102 170 93 247 230 180 191
335 332 291 241 304 313 288 245 242 248 331 332 326 304 288 265 245 264 263 237 225 218 236 223 232 207 232 211 230 214 219 232 243 231 228 232 194 114 154 156 138 255 194 178 189
332 320 263 217 317 295 263 263 289 307 358 341 299 313 301 304 298 222 246 243 242 239 223 247 254 226 205 226 221 231 213 225 236 228 252 229 214 176 174 170 147 305 182 174 181
338 298 145 282 305 265 247 253 330 7 7 344 314 306 307 305 306 302 277 240 275 239 228 233 250 260 217 207 209 211 229 215 237 239 234 249 223 203 180 164 165 195 185 179 182
313 287 13 323 284 237 244 21 354 327 323 306 289 285 284 287 288 290 284 274 353 342 311 237 237 250 260 207 213 214 220 229 222 227 227 257 263 336 223 174 184 186 200 179 186
303 293 253 323 284 328 344 333 325 309 316 321 313 308 300 278 276 273 281 285 310 309 326 347 274 236 248 218 203 217 213 226 223 238 238 229 234 49 263 237 182 153 114 92 237
300 308 315 297 265 320 328 311 289 291 348 322 304 299 283 281 261 261 267 272 278 271 330 324 280 265 241 242 187 201 220 214 227 219 230 236 220 272 269 256 175 122 116 166 223
284 311 330 296 324 320 304 276 322 328 315 299 306 285 271 298 285 267 250 256 265 271 254 268 263 277 258 263 222 198 212 221 223 228 223 231 210 196 249 189 354 113 118 111 157
305 330 322 295 281 276 274 358 251 283 349 298 306 299 299 264 272 300 320 278 246 266 252 255 270 265 260 256 261 201 205 218 224 223 236 228 184 173 267 173 179 146 124 123 145
292 298 296 289 280 285 304 294 301 296 309 301 281 273 264 261 278 278 289 282 295 270 273 299 278 258 251 251 255 243 199 207 224 217 226 233 207 182 172 196 192 118 173 154 138